Location: Frizzleburg
(41.0764°N, 80.4548°W)
Time: 11:13:56
(UTC+00:00)

SL-16 R/B - Pass Details

Date: 17 November 2019
Orbit: 842 x 846 km, 71.0° (Epoch: 12 December)

Event Time Altitude Azimuth Distance (km) Brightness Sun altitude
Exits shadow 11:40:05 - 322° (NW) 3,182 4.7 -6.3°
Reaches altitude 10° 11:42:13 10° 312° (NW) 2,474 4.1 -6.0°
Maximum altitude 11:46:50 26° 258° (WSW) 1,602 3.2 -5.1°
Drops below altitude 10° 11:51:25 10° 203° (SSW) 2,459 4.6 -4.3°
Sets 11:54:13 0° 191° (S) 3,389 5.5 -3.8°
